Temp
9 9 10 10 10 10 10 10 10 10 12 11 10 9 10 12 12 11 13 14 15 16 17 17 17 17 17 17 18 19 18 18 18 18 17 16 16 16 16 16 16 16 15 15
9 9 10 10 10 10 11 10 10 10 11 11 9 8 10 11 12 13 13 14 15 16 17 17 17 17 17 17 17 17 18 18 18 18 18 17 16 16 16 16 17 16 15 15
9 10 10 10 9 9 10 9 9 9 9 9 7 9 10 11 11 12 13 14 14 14 15 16 17 17 17 17 17 17 17 17 17 18 18 17 17 16 16 16 16 16 16 15
10 10 10 10 10 10 9 10 10 9 8 7 8 7 7 9 8 9 12 14 15 15 16 16 17 16 16 16 16 16 17 17 17 17 17 17 18 17 17 17 16 16 16 16
8 9 9 10 11 11 9 9 8 8 6 6 6 5 7 8 11 12 12 13 14 15 16 17 17 17 17 16 16 16 16 16 16 16 16 17 16 16 17 17 16 16 16 16
9 10 10 9 8 10 9 7 5 4 4 3 6 6 7 9 12 9 11 13 14 15 16 16 17 17 17 17 17 16 16 16 16 16 16 16 16 16 16 16 16 16 16 16
8 8 9 9 8 8 7 6 3 3 2 5 5 5 7 8 9 9 9 11 12 13 14 14 15 15 15 16 16 16 16 16 16 16 16 16 16 15 16 16 16 16 16 16
6 6 8 9 8 7 7 6 4 7 4 5 5 6 8 9 9 10 11 11 12 12 12 12 12 13 13 14 14 15 15 16 16 15 16 15 15 15 16 15 16 16 16 16
5 6 8 8 8 8 7 3 6 3 2 1 5 6 8 9 8 9 10 12 12 12 11 11 11 12 12 13 13 14 14 15 15 15 15 16 15 15 15 16 16 16 16 16
7 5 8 8 9 8 7 6 4 -0 3 4 5 5 7 10 10 9 8 10 10 10 10 10 10 10 10 11 12 13 13 14 14 14 15 15 15 15 14 15 15 15 15 15
7 6 7 8 7 6 6 5 4 3 3 4 4 7 6 9 10 8 8 11 10 10 9 9 8 8 9 10 11 12 13 13 13 14 14 14 14 13 14 14 14 14 14 14
8 4 6 7 6 7 7 6 4 2 3 3 4 5 8 7 9 9 10 11 10 9 8 8 8 8 9 9 10 11 12 12 13 13 13 13 13 13 13 13 12 11 12 10
7 3 2 4 6 5 6 6 5 3 2 -1 2 6 8 7 9 10 10 10 8 8 8 7 7 8 8 8 9 10 11 12 12 12 12 11 12 12 11 11 9 9 9 9
8 4 4 3 4 3 3 5 4 4 1 3 3 5 9 8 9 9 10 7 6 6 6 6 6 7 8 8 9 10 10 10 10 10 9 9 9 10 9 8 8 8 8 8
6 3 3 4 5 3 4 6 4 3 5 3 7 6 8 9 10 10 8 5 5 5 4 5 6 6 8 8 8 8 8 7 7 7 7 7 7 7 8 7 7 7 7 8
5 2 2 2 5 4 4 4 5 4 5 5 6 6 9 10 9 9 5 4 4 3 3 4 5 5 6 7 7 7 6 6 6 6 5 5 5 6 6 6 5 4 5 5
5 2 1 2 5 5 5 5 5 6 5 7 6 8 9 9 9 7 4 3 2 2 2 4 4 5 6 7 6 5 5 3 3 3 1 2 2 3 3 3 3 2 2 2
4 3 2 1 4 5 8 8 7 7 7 7 7 8 9 8 8 6 4 3 2 1 2 4 3 5 5 5 5 4 3 2 3 2 2 1 2 2 -0 0 1 0 1 1
6 6 4 4 2 5 10 11 9 8 8 8 7 7 8 9 7 5 4 2 1 1 1 2 3 3 3 3 3 2 2 2 2 1 2 1 0 0 1 0 1 0 0 -0
6 6 5 4 4 6 10 9 9 8 8 9 8 8 8 7 8 7 4 2 1 1 1 2 2 2 2 1 1 1 1 0 0 -0 0 -1 -1 -1 -0 -1 -0 -0 -0 -0
6 6 5 6 5 5 8 9 9 9 10 9 9 8 7 6 7 5 4 3 1 0 0 1 1 1 1 0 0 0 0 0 -0 -1 -1 -1 -1 -1 -0 -0 -0 -0 0 -0
6 6 6 6 5 5 9 8 10 10 10 9 8 8 7 7 6 5 4 3 2 0 -0 -0 -0 -0 -1 -1 -0 -1 -1 -2 -1 -1 -1 -1 -0 -0 -1 -1 -1 -2 -1 -2
6 5 6 5 5 8 9 10 11 10 9 9 8 7 7 6 6 5 3 3 3 2 0 -1 -1 -1 -1 -1 -0 -0 -0 -1 -0 -0 -0 -0 -1 -1 -1 -1 -1 -1 -1 -1
6 7 6 7 8 7 10 10 10 10 10 8 8 7 6 6 6 5 4 3 3 3 2 1 0 1 0 0 0 1 0 0 0 0 0 -0 -1 -1 -1 -1 -2 -2 -2 -2
5 6 8 8 7 9 10 10 10 10 9 8 7 7 7 6 6 5 4 3 3 3 3 2 2 1 1 1 1 1 0 0 1 0 -0 -1 -1 -1 -1 -1 -2 -2 -2 -2
5 6 5 4 7 8 8 9 9 9 8 8 7 7 6 6 6 5 4 3 3 3 3 3 2 2 1 1 1 1 1 1 1 0 -0 -1 -1 -1 -1 -2 -2 -2 -2 -2
Height
1465 1471 1470 1474 1477 1480 1484 1488 1488 1487 1484 1485 1485 1484 1476 1471 1472 1470 1468 1465 1462 1460 1460 1464 1467 1469 1469 1471 1472 1475 1477 1482 1484 1487 1489 1491 1491 1496 1498 1499 1502 1504 1506 1508
1468 1466 1469 1473 1477 1480 1483 1487 1489 1486 1484 1485 1484 1480 1471 1465 1463 1461 1460 1458 1456 1454 1453 1455 1459 1462 1463 1464 1466 1468 1469 1472 1476 1478 1481 1482 1485 1487 1491 1494 1496 1499 1500 1503
1463 1466 1470 1475 1478 1482 1484 1488 1489 1491 1487 1488 1487 1474 1465 1456 1454 1454 1452 1451 1450 1448 1446 1448 1450 1452 1455 1457 1460 1462 1464 1466 1467 1470 1474 1474 1476 1479 1483 1487 1489 1491 1492 1496
1464 1466 1469 1471 1476 1479 1484 1481 1486 1490 1492 1499 1492 1495 1474 1460 1455 1451 1447 1447 1446 1445 1443 1443 1444 1444 1446 1447 1450 1454 1457 1460 1462 1463 1464 1466 1467 1469 1473 1479 1483 1486 1487 1490
1470 1467 1470 1473 1473 1474 1482 1484 1487 1492 1499 1500 1497 1506 1475 1463 1453 1447 1446 1447 1447 1445 1442 1440 1440 1441 1442 1443 1444 1446 1450 1453 1456 1457 1457 1459 1461 1462 1466 1470 1474 1478 1480 1484
1469 1467 1469 1472 1476 1476 1481 1487 1495 1501 1505 1518 1498 1500 1479 1462 1454 1454 1448 1447 1446 1443 1441 1439 1439 1439 1440 1441 1442 1442 1444 1446 1448 1450 1451 1452 1455 1456 1458 1462 1466 1470 1473 1477
1469 1473 1472 1473 1479 1482 1485 1494 1519 1522 1529 1510 1500 1502 1473 1458 1456 1456 1453 1451 1448 1446 1444 1443 1441 1441 1440 1440 1440 1440 1441 1442 1443 1443 1444 1445 1448 1449 1452 1454 1457 1462 1463 1467
1480 1483 1474 1475 1479 1484 1487 1492 1510 1499 1518 1510 1499 1495 1467 1456 1455 1456 1455 1454 1451 1449 1448 1446 1445 1444 1442 1440 1439 1438 1438 1438 1438 1439 1439 1439 1440 1442 1443 1446 1449 1451 1455 1459
1482 1480 1474 1475 1477 1480 1491 1506 1497 1510 1520 1529 1496 1484 1463 1454 1455 1453 1452 1451 1451 1450 1448 1447 1446 1444 1443 1440 1438 1437 1435 1434 1434 1434 1433 1433 1432 1433 1435 1438 1440 1443 1446 1450
1470 1483 1475 1478 1478 1482 1484 1491 1507 1524 1524 1514 1497 1493 1473 1458 1457 1456 1455 1452 1449 1446 1443 1441 1439 1438 1437 1435 1434 1433 1431 1430 1429 1428 1427 1426 1424 1424 1427 1429 1431 1434 1438 1442
1467 1476 1483 1479 1482 1486 1490 1495 1500 1504 1509 1511 1512 1479 1462 1457 1455 1456 1453 1449 1446 1443 1439 1436 1432 1430 1427 1425 1426 1427 1426 1425 1424 1422 1420 1418 1417 1417 1419 1422 1423 1426 1431 1434
1468 1481 1483 1480 1483 1483 1483 1487 1494 1513 1514 1512 1509 1488 1456 1456 1455 1453 1448 1445 1441 1437 1434 1430 1426 1421 1418 1416 1417 1420 1422 1420 1417 1415 1412 1411 1411 1412 1413 1416 1418 1420 1423 1431
1468 1486 1504 1495 1488 1485 1483 1485 1489 1498 1505 1525 1517 1480 1454 1453 1451 1448 1445 1441 1438 1435 1431 1427 1422 1415 1413 1412 1414 1416 1416 1413 1411 1408 1406 1405 1406 1407 1409 1410 1413 1417 1421 1427
1466 1481 1486 1495 1489 1487 1492 1484 1488 1492 1512 1502 1491 1474 1455 1455 1451 1445 1443 1441 1437 1433 1430 1425 1420 1415 1413 1413 1411 1414 1412 1410 1406 1403 1401 1401 1403 1405 1407 1409 1410 1414 1418 1424
1469 1486 1487 1483 1480 1485 1482 1479 1485 1491 1485 1497 1470 1472 1459 1454 1448 1446 1442 1439 1435 1431 1427 1423 1420 1417 1414 1412 1413 1412 1410 1406 1403 1401 1399 1400 1403 1405 1406 1408 1410 1413 1417 1421
1472 1489 1488 1487 1476 1478 1481 1479 1479 1481 1480 1479 1473 1467 1452 1448 1445 1442 1441 1438 1434 1430 1425 1420 1419 1418 1415 1414 1412 1410 1408 1405 1402 1400 1400 1401 1404 1405 1406 1408 1412 1414 1417 1422
1474 1484 1491 1493 1479 1477 1478 1465 1468 1469 1469 1465 1471 1453 1446 1443 1442 1439 1438 1436 1432 1428 1423 1418 1417 1417 1416 1415 1413 1410 1408 1405 1403 1401 1402 1404 1406 1406 1408 1410 1414 1417 1421 1425
1476 1481 1486 1494 1482 1483 1456 1451 1452 1456 1455 1457 1454 1447 1443 1442 1439 1438 1437 1434 1431 1427 1421 1418 1418 1417 1417 1415 1414 1411 1410 1407 1406 1406 1407 1409 1411 1409 1414 1415 1415 1420 1425 1428
1468 1474 1481 1484 1493 1471 1448 1445 1450 1454 1451 1446 1447 1443 1441 1440 1438 1436 1436 1433 1430 1427 1423 1420 1420 1419 1419 1417 1416 1415 1413 1412 1411 1410 1410 1412 1415 1419 1420 1420 1421 1426 1429 1434
1470 1472 1478 1482 1484 1468 1446 1446 1446 1447 1454 1443 1443 1441 1440 1439 1438 1435 1434 1431 1430 1428 1425 1422 1421 1421 1420 1419 1418 1417 1416 1415 1414 1414 1414 1418 1422 1424 1425 1426 1427 1431 1434 1437
1470 1471 1474 1474 1479 1465 1447 1444 1446 1451 1451 1442 1441 1439 1438 1439 1437 1436 1434 1432 1430 1428 1427 1424 1423 1423 1422 1421 1421 1420 1419 1419 1419 1421 1422 1424 1427 1429 1429 1430 1434 1436 1438 1441
1464 1467 1469 1473 1477 1472 1443 1445 1446 1444 1441 1440 1438 1437 1435 1435 1435 1435 1434 1433 1431 1429 1428 1426 1425 1424 1424 1424 1425 1423 1423 1424 1424 1426 1428 1430 1431 1433 1435 1436 1438 1440 1443 1446
1463 1460 1461 1465 1458 1443 1442 1442 1442 1440 1439 1438 1436 1434 1433 1433 1434 1435 1434 1434 1433 1432 1431 1429 1427 1427 1427 1427 1428 1427 1428 1429 1430 1431 1433 1435 1437 1438 1439 1441 1443 1445 1447 1449
1455 1453 1455 1453 1442 1442 1441 1439 1437 1438 1437 1436 1434 1431 1430 1431 1432 1433 1434 1434 1434 1435 1434 1433 1432 1431 1431 1432 1432 1433 1433 1435 1436 1437 1438 1440 1441 1442 1443 1445 1447 1449 1449 1450
1454 1452 1447 1445 1442 1439 1437 1438 1438 1436 1435 1433 1431 1429 1428 1429 1430 1432 1433 1434 1434 1436 1436 1436 1436 1435 1435 1435 1436 1437 1439 1440 1441 1442 1443 1444 1445 1446 1447 1448 1449 1450 1451 1451
1449 1449 1451 1450 1443 1442 1437 1435 1434 1432 1432 1430 1429 1427 1426 1427 1429 1430 1432 1433 1434 1436 1437 1438 1438 1439 1438 1439 1440 1441 1443 1444 1445 1445 1446 1447 1448 1449 1449 1450 1450 1451 1451 1451
Wind_Speed
8 4 9 13 8 3 5 4 3 3 2 3 6 5 12 16 17 20 29 35 39 41 38 35 33 29 26 25 36 44 40 33 29 32 40 42 41 37 38 35 31 30 33 29
4 4 4 4 2 3 0 2 2 4 0 2 6 12 16 16 14 24 30 35 39 42 43 40 37 34 32 28 25 25 38 39 33 34 34 44 46 43 38 37 36 34 33 32
6 4 13 10 6 5 4 4 3 4 4 2 7 8 5 5 8 14 26 31 35 37 40 42 42 41 39 38 34 31 25 25 33 35 33 41 46 48 44 42 40 39 38 33
4 4 12 9 7 6 4 1 3 3 4 3 5 6 6 6 11 6 19 22 19 19 21 23 23 21 21 24 32 34 28 27 27 25 32 40 43 47 50 46 41 41 41 37
2 4 6 5 3 4 4 5 5 3 3 3 2 1 8 5 6 5 4 8 13 22 15 17 16 17 15 13 16 24 27 28 27 26 26 29 37 43 46 48 46 44 43 41
3 3 3 3 4 2 8 5 6 4 2 2 2 3 6 3 1 7 7 29 23 19 14 13 13 12 13 14 13 14 22 28 28 29 29 28 32 37 41 43 45 44 44 42
4 3 2 5 7 6 5 5 2 4 3 4 3 2 9 8 7 4 9 19 22 18 14 11 7 6 7 9 11 14 17 20 23 27 32 33 30 33 38 37 40 46 47 46
4 1 3 1 4 5 1 5 4 4 1 4 1 5 6 3 7 5 10 15 23 27 26 20 13 12 12 13 15 17 19 21 22 23 26 27 28 31 30 35 39 39 45 48
4 2 1 2 3 5 4 1 2 5 3 3 3 6 9 4 7 9 15 20 27 29 26 26 26 23 24 20 16 18 20 19 19 20 25 32 36 34 32 31 34 38 41 44
3 4 2 2 5 5 3 7 3 3 2 3 3 5 4 2 3 4 7 15 22 22 31 32 30 27 25 24 24 21 19 19 21 24 27 29 32 34 33 30 31 38 39 43
4 3 1 5 3 6 3 1 4 4 3 3 3 6 6 3 1 6 9 22 21 28 30 32 33 37 31 30 26 23 18 20 21 24 26 29 31 28 28 28 32 35 42 42
1 4 3 2 1 1 3 5 5 4 3 2 1 7 3 5 2 10 22 23 27 30 27 35 29 34 31 21 19 19 19 21 23 26 26 26 25 24 25 27 32 36 38 34
4 2 3 5 4 3 2 3 4 4 3 5 3 5 1 7 17 25 24 28 28 25 29 29 33 33 17 13 9 14 18 21 25 25 23 19 19 20 23 25 26 29 29 29
6 3 4 5 4 3 2 4 6 6 3 3 7 9 17 17 16 22 25 19 18 20 22 25 26 16 7 11 8 17 20 23 24 22 18 14 16 18 19 20 23 25 25 25
4 3 2 4 5 3 4 4 7 7 10 5 2 6 18 18 18 21 14 17 19 21 22 21 21 14 8 7 11 15 19 20 18 16 13 11 14 15 17 19 21 22 23 21
2 1 2 4 3 6 4 7 8 8 9 12 18 22 23 29 20 13 11 14 18 21 23 20 13 16 8 9 12 15 16 16 12 9 7 10 14 17 18 20 21 21 20 19
3 4 2 4 3 4 5 10 11 5 5 9 12 14 12 8 11 11 11 15 16 20 23 19 10 12 11 13 13 13 13 9 6 4 8 10 13 18 21 20 21 19 19 21
5 4 2 3 3 1 5 3 7 12 10 13 11 12 13 10 13 8 8 15 16 17 18 12 5 7 10 11 9 9 7 4 3 3 1 5 10 11 15 17 17 19 19 18
3 3 1 1 2 6 2 2 4 5 6 6 11 11 11 14 10 5 9 11 11 12 11 7 3 5 5 5 5 4 3 4 5 8 8 8 11 15 16 19 22 22 21 21
4 4 2 0 2 3 1 3 3 4 3 2 6 6 5 9 3 0 9 10 8 8 6 3 2 2 2 2 1 1 5 8 10 12 13 18 22 22 22 23 23 23 20 17
3 2 4 5 3 6 7 5 6 2 3 6 7 10 9 3 4 4 5 8 8 4 3 2 1 1 1 1 1 4 7 9 13 15 18 18 18 19 20 20 18 17 15 12
6 5 3 3 3 6 4 3 1 3 5 10 13 9 11 10 7 2 1 5 8 4 3 2 2 4 3 4 3 5 8 11 13 16 20 21 18 17 17 17 17 14 11 10
4 6 4 7 5 4 2 9 14 10 10 11 13 12 10 11 9 4 2 3 7 7 7 6 9 10 12 10 12 19 20 19 20 18 18 18 18 18 15 12 12 10 7 4
3 8 3 1 3 3 16 17 9 7 12 13 13 12 9 12 10 7 5 6 9 8 10 12 14 16 17 16 16 16 17 15 16 18 19 17 15 14 12 9 8 5 3 1
4 3 3 5 7 14 5 5 11 13 14 13 12 11 8 11 11 10 9 8 10 11 11 12 14 15 17 16 16 15 15 14 15 16 15 13 11 9 8 6 5 2 1 2
4 2 2 4 10 9 12 16 17 14 14 13 11 9 9 12 11 12 11 10 10 12 12 11 13 13 15 14 13 13 12 11 10 12 11 9 7 7 5 3 2 3 4 7
Wind_Direction
170 159 192 184 180 156 152 154 173 237 247 317 260 259 272 270 274 270 268 267 269 269 270 266 264 265 270 251 246 245 248 247 248 244 242 241 244 244 246 244 242 237 233 228
141 206 137 107 151 106 84 105 297 290 126 305 309 293 272 266 252 249 256 260 262 268 272 270 265 261 262 258 251 255 250 250 250 250 244 240 241 242 245 248 246 242 236 232
167 138 165 167 173 182 206 165 201 233 317 70 323 282 271 305 271 269 257 263 269 265 270 272 272 268 263 256 254 254 255 256 252 249 247 241 238 240 240 242 243 241 239 235
101 132 162 155 170 170 144 184 141 74 39 272 33 294 306 300 303 257 265 254 273 282 279 281 283 280 274 264 254 251 254 256 256 253 244 245 245 243 241 243 244 244 243 243
208 134 140 136 175 149 152 111 90 90 82 2 340 110 275 331 313 310 353 28 343 328 314 300 295 291 296 291 267 246 246 251 251 253 252 249 250 248 245 243 240 239 242 243
146 122 88 131 61 94 125 73 50 56 72 358 277 139 280 258 313 327 351 338 341 344 341 332 309 290 280 278 274 258 250 251 252 252 253 249 248 249 250 244 240 238 241 243
27 9 35 103 76 27 79 77 335 356 14 224 131 114 250 286 295 280 306 355 16 8 344 340 327 296 279 277 275 269 261 253 255 259 255 253 249 246 249 253 247 241 239 239
148 135 171 172 144 168 105 141 161 207 210 289 143 228 252 201 313 71 64 33 18 11 10 1 329 303 290 276 267 262 260 258 258 261 264 261 258 252 248 249 250 247 242 243
125 31 57 124 121 125 180 107 185 105 46 40 261 286 307 73 35 25 10 359 345 339 339 331 318 313 313 293 279 271 267 266 264 264 267 267 266 258 253 247 248 247 244 241
197 87 97 100 101 55 141 153 74 358 124 272 295 274 246 279 325 349 331 320 325 331 331 326 317 306 300 281 275 275 275 276 275 274 272 272 277 264 253 250 244 243 244 243
115 84 190 128 184 170 130 196 54 115 130 166 322 270 216 222 299 331 314 323 328 327 322 322 316 305 299 276 270 265 274 283 285 288 283 274 273 265 250 250 245 240 241 238
77 117 154 147 2 263 166 172 135 124 224 98 169 271 267 255 324 306 323 325 327 324 319 323 319 319 305 289 264 261 276 287 298 301 295 287 273 261 250 250 247 238 233 229
178 20 69 360 349 0 180 178 129 116 92 200 146 259 341 320 330 321 319 328 325 321 324 318 318 318 305 297 260 280 293 304 304 304 298 285 268 254 249 249 242 229 215 214
109 113 148 187 205 136 190 190 175 140 129 199 234 291 296 309 307 312 323 326 329 319 319 320 333 336 303 320 290 300 313 314 310 303 294 280 257 241 240 236 219 209 203 204
101 131 144 246 230 156 203 200 179 190 207 195 236 277 283 293 297 303 317 323 323 319 322 324 318 326 291 260 299 315 319 319 311 306 295 253 229 214 208 202 190 191 191 197
15 168 101 304 289 206 247 221 212 215 231 257 265 278 277 276 285 305 316 330 321 321 324 327 298 328 314 311 311 315 322 317 308 293 244 218 203 192 192 186 185 181 178 181
102 123 73 284 338 318 284 227 196 198 203 221 238 246 270 292 314 318 319 328 328 329 334 333 281 296 313 312 309 319 324 317 294 215 166 177 181 177 176 174 170 165 164 165
127 106 112 251 6 270 243 141 181 203 237 212 256 268 277 288 306 299 325 333 335 343 351 347 295 279 288 298 308 327 335 11 40 69 126 162 162 174 156 155 149 145 146 147
128 122 145 235 221 277 273 225 138 173 279 218 231 265 278 311 314 276 333 347 341 347 358 8 314 287 289 305 343 356 51 85 103 121 108 120 131 149 139 140 138 140 144 146
82 98 121 268 240 247 221 135 135 108 293 251 212 269 284 335 325 354 345 355 350 353 6 12 358 321 330 19 58 122 111 110 111 118 128 137 148 149 149 142 137 137 134 136
165 181 211 228 269 284 254 249 144 50 311 313 299 292 288 227 247 306 337 358 4 348 345 358 288 252 157 169 142 116 123 126 125 132 139 145 142 137 132 128 127 124 128 128
177 177 188 171 216 267 217 115 132 231 308 318 316 302 278 262 252 252 337 25 30 35 25 52 120 123 103 110 132 128 124 125 128 126 125 125 122 120 118 117 110 105 108 123
203 189 184 188 217 255 254 294 294 303 309 310 307 308 275 249 237 229 196 95 74 77 78 87 105 110 115 111 112 111 107 115 115 116 115 118 116 108 100 104 110 115 119 125
244 198 227 357 312 240 288 309 319 296 298 306 309 298 267 237 231 215 195 154 126 113 109 103 105 108 111 115 117 111 111 115 116 121 120 118 118 111 107 113 120 128 126 118
224 339 261 259 287 302 293 298 306 302 301 306 307 292 270 226 229 215 203 184 158 144 133 126 118 122 119 121 122 120 122 124 126 123 122 121 119 121 126 133 130 118 20 341
198 223 176 257 295 283 278 313 313 298 304 308 301 292 255 231 228 215 207 200 180 165 158 158 152 146 136 135 132 127 122 125 127 128 128 131 135 135 128 97 31 332 322 326